Regional Weather Roundup
Issued by NWS

Home | Current Version | Previous Version | Text Only | Print | Product List | Glossary On
Versions: 1 2 3 4 5 6 7 8 9 10 11 12 13 14 15 16 17 18 19 20 21 22 23 24 25 26 27 28 29 30 31 32 33 34 35 36 37 38 39 40 41 42 43 44 45 46 47 48 49 50
000
ASUS44 KLIX 270611
RWRLA
LOUISIANA WEATHER ROUNDUP
NATIONAL WEATHER SERVICE NEW ORLEANS LA
100 AM CDT FRI MAR 27 2015

NOTE: "FAIR" INDICATES FEW OR NO CLOUDS BELOW 12,000 FEET WITH NO
      SIGNIFICANT WEATHER AND/OR OBSTRUCTIONS TO VISIBILITY.
      SKY/WX - SKY CONDITION AND SIGNIFICANT WEATHER.
      TMP - AIR TEMPERATURE.    DP   - DEWPOINT TEMPERATURE.
      RH  - RELATIVE HUMIDITY.  PRES - PRESSURE.
      HX  - HEAT INDEX.         WCI  - WIND CHILL INDEX.

*  THESE STATIONS ARE NOT NWS OR FAA STATIONS AND ARE NOT UNDER
   NWS QUALITY CONTROL.

LAZ040-048-061>063-065-066-069-270700-
SOUTHEAST LOUISIANA

CITY           SKY/WX    TMP DP  RH WIND       PRES   REMARKS
N.O. AUDUBON     N/A     59  58  98 MISG        N/A
6HR MIN TEMP:  59; 6HR MAX TEMP:  66;

N.O. INTL ARPT CLOUDY    59  53  80 NW15G24   29.96R
6HR MIN TEMP:  59; 6HR MAX TEMP:  66;

N.O. LAKEFRONT CLOUDY    61  55  81 NW25      29.96R
6HR MIN TEMP:  61; 6HR MAX TEMP:  68; 6HR PCP: TRACE;

SLIDELL        CLOUDY    57  53  86 N9        29.93S
6HR MIN TEMP:  57; 6HR MAX TEMP:  65; 6HR PCP: TRACE;

BATON ROUGE    CLOUDY    54  48  80 VRB5      30.01R
6HR MIN TEMP:  54; 6HR MAX TEMP:  66; 6HR PCP:  0.01;

BOOTHVILLE     CLOUDY    64  63  96 W3        29.90S FOG
6HR MIN TEMP:  61; 6HR MAX TEMP:  65;

BELLE CHASSE   CLOUDY    60  56  86 NW12G26   29.93R
6HR MIN TEMP:  60; 6HR MAX TEMP:  65;

BOGALUSA*        N/A     56  50  80 N10       29.97R
6HR MIN TEMP:  56; 6HR MAX TEMP:  68; 6HR PCP:  0.02;

GALLIANO*      CLOUDY    52  51  98 MISG      29.93R
6HR MIN TEMP:  52; 6HR MAX TEMP:  57;

NEW ROADS*     CLOUDY    54  47  77 N12G18    30.03R
6HR MIN TEMP:  54; 6HR MAX TEMP:  65;

GONZALES*      CLOUDY    56  52  85 NW14      29.98S
6HR MIN TEMP:  56; 6HR MAX TEMP:  66;

HAMMOND*       CLOUDY    55  48  76 N13       30.00R
HOUMA*         CLOUDY    58  55  92 NW15G23   29.94F
6HR MIN TEMP:  58; 6HR MAX TEMP:  65;

PORT FOURCHON* CLOUDY    66  64  94 NW15      29.95R

$$

LAZ041-044-053-054-270700-
SOUTHWEST LOUISIANA

CITY           SKY/WX    TMP DP  RH WIND       PRES   REMARKS
LAKE CHARLES   PTCLDY    56  46  69 N15G22    30.05R
6HR MIN TEMP:  56; 6HR MAX TEMP:  62;

LAFAYETTE      CLOUDY    56  49  77 N16G25    30.01F
6HR MIN TEMP:  56; 6HR MAX TEMP:  67;

PATTERSON      CLOUDY    55  48  76 N16G23    29.99R
6HR MIN TEMP:  55; 6HR MAX TEMP:  64;

SALT POINT       N/A     57  52  83 N10G18    29.95F
6HR MIN TEMP:  57; 6HR MAX TEMP:  66; 6HR PCP:  0.14;

NEW IBERIA     MOCLDY    56  49  77 N18       30.01S
6HR MIN TEMP:  56; 6HR MAX TEMP:  68; 6HR PCP: TRACE;

CHENAULT AIRPK PTCLDY    54  46  75 N9        30.06S
6HR MIN TEMP:  54; 6HR MAX TEMP:  60;


$$

LAZ027-028-270700-
CENTRAL LOUISIANA

CITY           SKY/WX    TMP DP  RH WIND       PRES   REMARKS
FORT POLK      NOT AVBL
ALEXANDRIA INT MOCLDY    51  44  77 N7        30.06S
6HR MIN TEMP:  51; 6HR MAX TEMP:  56;

ALEXANDRIA     MOCLDY    50  45  83 CALM      30.07R
6HR MIN TEMP:  50; 6HR MAX TEMP:  55;


$$

LAZ001-002-270700-
NORTHWEST LOUISIANA

CITY           SKY/WX    TMP DP  RH WIND       PRES   REMARKS
SHREVEPORT     CLEAR     51  43  74 N8        30.09S
6HR MIN TEMP:  47; 6HR MAX TEMP:  59;

BARKSDALE AFB  CLEAR     47  44  90 NW5       30.10R
6HR MIN TEMP:  45; 6HR MAX TEMP:  57;

DTN SHREVEPORT CLEAR     49  43  80 NW3       30.10S
6HR MIN TEMP:  46; 6HR MAX TEMP:  58;


$$

LAZ014-016-270700-
NORTHEAST LOUISIANA

CITY           SKY/WX    TMP DP  RH WIND       PRES   REMARKS
MONROE         CLEAR     45  43  93 N3        30.09S
6HR MIN TEMP:  45; 6HR MAX TEMP:  53; 6HR PCP: TRACE;

TALLULAH       PTCLDY    49  40  71 N12       30.06S
6HR MIN TEMP:  49; 6HR MAX TEMP:  53; 6HR PCP:  0.01;


$$



USA.gov is the U.S. government's official web portal to all federal, state and local government web resources and services.